Home   Weather   Arctic Bay   Past weeks
Flag for Canada

Past Weather in Arctic Bay, Nunavut, Canada — Yesterday and Last 2 Weeks

Now
46 °F

Partly sunny.


Feels Like: 44 °F
Forecast: N/A
Wind: 5 mph from Northeast

Location: Pond Inlet

Current Time: Aug 22, 2019 at 4:37:40 pm

Latest Report: Aug 22, 2019 at 4:00 pm


Visibility: 40 mi

Pressure: 29.98 "Hg

Humidity: 82%

Dew Point: 41 °F

Location of Arctic BayLocation

Past Weather in Arctic Bay — Graph

°F

Arctic Bay Temperature Yesterday

Maximum temperature yesterday: 45 °F (at 12:00 pm)
Minimum temperature yesterday: 37 °F (at 12:00 am)
Average temperature yesterday: 41 °F

High & Low Weather Summary for the Past Weeks

 TemperatureHumidityPressure
High64 °F (Aug 7, 5:00 pm)100% (Aug 13, 3:00 am)30.17 "Hg (Aug 13, 3:00 am)
Low37 °F (Aug 21, 12:00 am)50% (Aug 16, 5:00 pm)29.85 "Hg (Aug 16, 3:00 pm)
Average48 °F77%30.03 "Hg
* Reported Aug 7 3:00 pm — Aug 22 3:00 pm, Arctic Bay. Weather by CustomWeather, © 2019

Note: Actual official high and low records may vary slightly from our data, if they occured in-between our weather recording intervals... More about our weather records

Advertising

Arctic Bay Weather History for the Previous 24 Hours

Scroll right to see more
 ConditionsComfort  
Time TempWeatherWind HumidityBarometerVisibility
3:00 pm
Thu, Aug 22
46 °FPartly sunny.5 mph82%29.99 "Hg40 mi
2:00 pm46 °FPartly sunny.3 mph82%29.99 "Hg40 mi
1:00 pm46 °FPartly sunny.3 mph82%29.99 "Hg40 mi
12:00 pm46 °FMostly cloudy.3 mph76%29.99 "Hg40 mi
11:00 am46 °FMostly cloudy.No wind71%29.98 "Hg35 mi
10:00 am46 °FOvercast.2 mph71%29.99 "Hg9 mi
9:00 am46 °FOvercast.5 mph71%29.99 "Hg9 mi
8:00 am45 °FMostly cloudy.5 mph76%29.99 "Hg9 mi
7:00 am43 °FMostly cloudy.2 mph81%29.98 "Hg9 mi
6:00 am43 °FOvercast.6 mph76%29.98 "Hg9 mi
5:00 am39 °FPartly sunny.8 mph81%29.98 "Hg9 mi
4:00 am41 °FPartly sunny.8 mph76%29.97 "Hg9 mi
3:00 am39 °FCloudy.7 mph81%29.98 "Hg9 mi
2:00 am39 °FMostly cloudy.2 mph81%29.98 "Hg9 mi
1:00 am41 °FMostly cloudy.2 mph76%29.98 "Hg9 mi
12:00 am41 °FOvercast.3 mph81%29.98 "Hg9 mi
11:00 pm
Wed, Aug 21
41 °FOvercast.3 mph87%29.99 "Hg9 mi
10:00 pm41 °FPassing clouds.5 mph81%30.00 "Hg9 mi
9:00 pm43 °FPassing clouds.3 mph76%30.01 "Hg9 mi
8:00 pm43 °FMore clouds than sun.No wind76%30.01 "Hg9 mi
7:00 pm43 °FPartly sunny.2 mph76%30.02 "Hg9 mi
6:00 pm45 °FOvercast.7 mph66%30.02 "Hg6 mi
5:00 pm45 °FPartly sunny.12 mph66%30.02 "Hg40 mi
4:00 pm45 °FPartly sunny.10 mph66%30.03 "Hg40 mi
Weather by CustomWeather, © 2019

See weather overview